Location: Newark
(48.1500°N, 2.9667°W)
Time: 03:27:02
(UTC+00:00)

Altair - Pass Details

Date: 27 January 2020
Orbit: 1502 x 1682 km, 47.2° (Epoch: 18 February)

Event Time Altitude Azimuth Distance (km) Brightness Sun altitude
Rises 13:07:24 0° 285° (WNW) 4,936 10.1 22.7°
Reaches altitude 10° 13:10:35 10° 283° (WNW) 3,949 9.7 22.6°
Maximum altitude 13:20:37 67° 204° (SSW) 1,789 8.7 22.2°
Drops below altitude 10° 13:30:27 10° 125° (SE) 3,872 9.9 21.7°
Sets 13:33:34 0° 123° (ESE) 4,836 10.3 21.6°
